Total_Precipitation_Accumulation
0.04 0.12 0.24 0.30 0.47 0.20 0.01 0.00 0.00 0.00 0.00 0.00 0.00 0.00 0.00 0.03 0.12 0.26 0.08 0.05 0.01 0.00 0.00 0.03 0.04 0.04 0.05 0.08 0.11 0.14 0.14 0.13 0.16 0.18 0.17 0.19 0.15 0.12 0.08 0.06 0.05 0.05 0.06 0.11 0.11 0.13 0.13 0.17 0.23
0.07 0.19 0.27 0.47 0.32 0.03 0.01 0.00 0.00 0.00 0.00 0.00 0.00 0.00 0.00 0.00 0.01 0.03 0.10 0.11 0.01 0.00 0.00 0.01 0.02 0.04 0.06 0.10 0.15 0.16 0.16 0.13 0.16 0.15 0.15 0.16 0.14 0.09 0.10 0.12 0.06 0.04 0.05 0.06 0.08 0.08 0.12 0.20 0.26
0.09 0.18 0.33 0.39 0.09 0.01 0.02 0.03 0.01 0.00 0.00 0.00 0.00 0.00 0.00 0.02 0.01 0.03 0.08 0.06 0.01 0.00 0.01 0.03 0.06 0.05 0.08 0.15 0.27 0.28 0.24 0.18 0.11 0.10 0.10 0.10 0.09 0.09 0.16 0.08 0.04 0.04 0.04 0.05 0.07 0.09 0.11 0.20 0.27
0.10 0.21 0.43 0.21 0.05 0.05 0.06 0.05 0.01 0.00 0.01 0.01 0.01 0.01 0.01 0.02 0.02 0.03 0.04 0.03 0.01 0.01 0.02 0.09 0.19 0.14 0.15 0.20 0.35 0.31 0.25 0.23 0.11 0.09 0.08 0.08 0.06 0.09 0.10 0.07 0.06 0.03 0.02 0.03 0.05 0.09 0.11 0.18 0.25
0.11 0.30 0.51 0.57 0.15 0.11 0.13 0.10 0.03 0.02 0.02 0.04 0.02 0.02 0.04 0.04 0.05 0.07 0.10 0.07 0.04 0.03 0.04 0.12 0.28 0.23 0.19 0.22 0.33 0.30 0.26 0.27 0.15 0.09 0.09 0.08 0.07 0.09 0.10 0.12 0.07 0.03 0.01 0.02 0.02 0.05 0.09 0.14 0.20
0.16 0.46 0.69 0.82 0.27 0.16 0.19 0.16 0.07 0.05 0.05 0.08 0.04 0.03 0.08 0.09 0.09 0.10 0.11 0.13 0.13 0.12 0.09 0.11 0.24 0.22 0.19 0.26 0.35 0.38 0.32 0.26 0.15 0.11 0.11 0.09 0.09 0.11 0.12 0.11 0.05 0.02 0.01 0.02 0.02 0.02 0.05 0.09 0.15
0.15 0.43 0.52 0.40 0.28 0.29 0.22 0.16 0.13 0.11 0.11 0.20 0.10 0.10 0.19 0.15 0.12 0.12 0.15 0.23 0.30 0.30 0.25 0.21 0.21 0.19 0.22 0.32 0.36 0.52 0.55 0.36 0.20 0.16 0.13 0.11 0.09 0.10 0.10 0.07 0.03 0.01 0.01 0.02 0.01 0.01 0.02 0.06 0.10
0.12 0.22 0.36 0.42 0.40 0.49 0.31 0.15 0.10 0.08 0.13 0.18 0.14 0.18 0.31 0.28 0.20 0.17 0.20 0.28 0.31 0.29 0.28 0.27 0.27 0.29 0.36 0.43 0.55 0.75 0.84 0.66 0.38 0.27 0.20 0.16 0.10 0.09 0.09 0.04 0.02 0.01 0.01 0.00 0.00 0.00 0.01 0.03 0.06
0.12 0.18 0.42 0.61 0.54 0.53 0.32 0.15 0.09 0.09 0.13 0.15 0.12 0.19 0.26 0.24 0.24 0.26 0.33 0.38 0.38 0.33 0.33 0.32 0.34 0.38 0.53 0.59 0.68 0.89 0.99 0.91 0.56 0.38 0.30 0.20 0.13 0.20 0.19 0.08 0.04 0.02 0.01 0.00 0.00 0.00 0.01 0.02 0.03
0.16 0.23 0.38 0.48 0.44 0.34 0.24 0.17 0.13 0.15 0.16 0.15 0.14 0.18 0.21 0.26 0.29 0.35 0.41 0.42 0.42 0.39 0.33 0.33 0.32 0.32 0.38 0.42 0.67 0.86 0.81 0.85 0.58 0.57 0.45 0.35 0.36 0.36 0.30 0.19 0.12 0.07 0.03 0.01 0.01 0.01 0.01 0.00 0.00
0.15 0.18 0.19 0.23 0.24 0.17 0.15 0.14 0.15 0.15 0.15 0.14 0.13 0.17 0.20 0.29 0.35 0.35 0.39 0.42 0.45 0.45 0.37 0.30 0.30 0.29 0.33 0.42 0.53 0.73 0.94 0.94 0.91 0.85 0.75 0.66 0.52 0.31 0.21 0.20 0.16 0.11 0.07 0.02 0.02 0.01 0.00 0.00 0.00
0.12 0.11 0.11 0.13 0.12 0.15 0.12 0.09 0.12 0.13 0.11 0.10 0.11 0.17 0.25 0.32 0.37 0.39 0.41 0.43 0.47 0.54 0.53 0.41 0.33 0.32 0.32 0.36 0.47 0.64 0.80 0.89 0.87 0.72 0.61 0.77 0.70 0.44 0.31 0.34 0.31 0.21 0.13 0.06 0.01 0.00 0.00 0.00 0.00
0.12 0.13 0.10 0.12 0.14 0.16 0.11 0.08 0.10 0.12 0.11 0.10 0.13 0.22 0.34 0.41 0.44 0.45 0.45 0.48 0.52 0.56 0.62 0.55 0.41 0.34 0.37 0.38 0.43 0.48 0.68 0.79 0.72 0.77 0.69 0.70 0.65 0.49 0.38 0.37 0.45 0.36 0.22 0.11 0.04 0.01 0.01 0.01 0.00
0.07 0.13 0.14 0.12 0.13 0.11 0.10 0.09 0.12 0.14 0.13 0.14 0.19 0.28 0.37 0.45 0.49 0.49 0.48 0.49 0.49 0.50 0.53 0.54 0.49 0.47 0.45 0.42 0.42 0.46 0.49 0.62 0.61 0.57 0.50 0.66 0.73 0.63 0.56 0.44 0.50 0.56 0.49 0.32 0.11 0.03 0.02 0.02 0.02
0.05 0.08 0.09 0.11 0.12 0.11 0.11 0.12 0.15 0.17 0.15 0.15 0.18 0.24 0.33 0.43 0.47 0.49 0.46 0.42 0.42 0.44 0.44 0.47 0.54 0.58 0.57 0.56 0.56 0.53 0.54 0.55 0.59 0.61 0.58 0.68 0.74 0.78 0.72 0.51 0.46 0.53 0.62 0.51 0.29 0.13 0.07 0.04 0.03
0.04 0.10 0.18 0.17 0.19 0.23 0.20 0.14 0.18 0.21 0.18 0.16 0.14 0.15 0.19 0.24 0.31 0.40 0.40 0.36 0.35 0.34 0.33 0.38 0.45 0.52 0.58 0.62 0.66 0.62 0.65 0.66 0.62 0.65 0.61 0.62 0.71 0.81 0.84 0.70 0.58 0.58 0.63 0.66 0.57 0.33 0.19 0.09 0.04
0.06 0.11 0.16 0.13 0.14 0.21 0.22 0.19 0.20 0.17 0.15 0.13 0.10 0.10 0.11 0.14 0.19 0.26 0.29 0.29 0.28 0.27 0.26 0.29 0.34 0.41 0.48 0.57 0.65 0.67 0.69 0.82 0.89 0.76 0.60 0.66 0.77 0.83 0.96 0.96 0.88 0.79 0.80 0.75 0.72 0.52 0.29 0.15 0.08
0.07 0.10 0.12 0.11 0.09 0.09 0.12 0.15 0.15 0.08 0.06 0.06 0.07 0.06 0.06 0.07 0.11 0.18 0.21 0.22 0.23 0.24 0.23 0.25 0.31 0.33 0.36 0.47 0.62 0.71 0.68 0.77 0.97 1.00 0.96 0.99 1.05 1.10 1.21 1.22 1.14 1.05 0.98 0.86 0.85 0.81 0.48 0.26 0.15
0.12 0.11 0.08 0.06 0.04 0.04 0.04 0.05 0.07 0.05 0.04 0.05 0.06 0.05 0.05 0.05 0.06 0.09 0.12 0.15 0.17 0.17 0.19 0.23 0.29 0.32 0.33 0.41 0.52 0.59 0.68 0.86 1.06 1.12 1.18 1.30 1.32 1.33 1.43 1.51 1.49 1.34 1.14 1.05 1.07 1.13 0.87 0.54 0.29
0.03 0.01 0.01 0.01 0.01 0.01 0.01 0.03 0.05 0.06 0.05 0.05 0.05 0.05 0.04 0.05 0.04 0.05 0.07 0.09 0.10 0.10 0.12 0.17 0.26 0.35 0.41 0.46 0.60 0.75 0.97 1.08 1.21 1.36 1.35 1.37 1.42 1.43 1.49 1.66 1.72 1.61 1.50 1.48 1.34 1.34 1.28 0.95 0.61
0.01 0.01 0.01 0.01 0.00 0.00 0.01 0.02 0.04 0.06 0.07 0.08 0.07 0.07 0.06 0.04 0.04 0.04 0.04 0.06 0.09 0.08 0.10 0.16 0.31 0.50 0.70 0.81 1.04 1.31 1.56 1.62 1.54 1.54 1.57 1.55 1.59 1.62 1.58 1.68 1.84 1.75 1.65 1.60 1.64 1.70 1.72 1.45 1.09
0.00 0.00 0.01 0.00 0.00 0.00 0.00 0.02 0.04 0.10 0.14 0.15 0.14 0.13 0.11 0.11 0.09 0.07 0.08 0.08 0.09 0.12 0.20 0.36 0.60 0.90 1.16 1.31 1.50 1.71 1.82 1.84 1.77 1.79 1.76 1.73 1.65 1.56 1.52 1.62 1.81 1.92 1.95 1.93 1.93 1.80 1.86 1.80 1.46
0.00 0.00 0.00 0.00 0.00 0.00 0.00 0.02 0.07 0.16 0.24 0.27 0.28 0.27 0.25 0.24 0.18 0.19 0.21 0.22 0.28 0.39 0.57 0.86 1.12 1.37 1.52 1.57 1.67 1.87 2.02 2.16 2.17 2.05 1.90 1.77 1.72 1.63 1.54 1.57 1.63 1.66 1.71 1.78 1.86 1.81 1.86 1.81 1.75
0.01 0.02 0.02 0.02 0.02 0.01 0.01 0.05 0.16 0.26 0.31 0.36 0.38 0.34 0.32 0.30 0.29 0.35 0.45 0.55 0.70 0.82 1.00 1.20 1.35 1.50 1.50 1.51 1.57 1.70 1.88 2.03 2.05 2.07 2.03 1.88 1.71 1.60 1.51 1.45 1.53 1.55 1.54 1.63 1.70 1.72 1.82 1.83 1.78
0.03 0.07 0.07 0.05 0.05 0.05 0.06 0.18 0.27 0.26 0.27 0.33 0.36 0.35 0.34 0.34 0.41 0.57 0.72 0.86 0.98 1.09 1.19 1.22 1.22 1.27 1.30 1.32 1.35 1.42 1.49 1.51 1.56 1.66 1.57 1.43 1.31 1.25 1.25 1.18 1.20 1.30 1.35 1.50 1.51 1.42 1.40 1.49 1.53
0.01 0.04 0.10 0.09 0.08 0.11 0.15 0.36 0.40 0.31 0.25 0.25 0.27 0.33 0.43 0.57 0.68 0.77 0.88 0.97 1.01 1.14 1.20 1.16 1.13 1.12 1.06 1.00 1.05 1.06 1.10 1.14 1.16 1.16 1.08 1.00 0.96 0.94 0.90 0.90 0.89 0.92 0.98 1.16 1.31 1.27 1.24 1.25 1.27
0.01 0.03 0.09 0.18 0.14 0.13 0.20 0.44 0.44 0.29 0.23 0.22 0.24 0.32 0.48 0.70 0.94 1.08 1.08 0.99 0.90 0.94 1.02 1.01 0.97 0.92 0.84 0.78 0.82 0.85 0.91 0.92 0.88 0.84 0.76 0.73 0.70 0.69 0.67 0.69 0.75 0.79 0.78 0.85 0.95 1.09 1.14 1.12 1.14
0.02 0.05 0.13 0.23 0.22 0.23 0.31 0.47 0.43 0.32 0.28 0.25 0.30 0.40 0.58 0.80 1.00 1.24 1.38 1.27 1.00 0.80 0.82 0.79 0.76 0.80 0.79 0.75 0.77 0.76 0.69 0.63 0.63 0.65 0.59 0.56 0.59 0.61 0.60 0.56 0.56 0.60 0.59 0.66 0.75 0.80 0.88 0.89 1.00
0.04 0.10 0.16 0.20 0.23 0.34 0.56 0.70 0.60 0.49 0.44 0.43 0.47 0.54 0.61 0.88 1.17 1.31 1.36 1.23 1.05 0.78 0.69 0.68 0.66 0.70 0.76 0.70 0.71 0.71 0.61 0.48 0.45 0.45 0.43 0.41 0.41 0.47 0.47 0.47 0.50 0.49 0.47 0.47 0.47 0.50 0.56 0.60 0.66
0.11 0.19 0.27 0.35 0.39 0.41 0.54 0.65 0.53 0.55 0.61 0.56 0.60 0.70 0.72 0.78 0.83 0.85 0.96 0.97 0.91 0.78 0.71 0.75 0.80 0.79 0.71 0.65 0.62 0.58 0.51 0.43 0.42 0.41 0.36 0.36 0.36 0.39 0.39 0.41 0.45 0.45 0.49 0.48 0.46 0.45 0.45 0.50 0.56